Location: Cartersville (historical)
(42.9944°N, 93.0869°W)
Time: 22:21:55
(UTC+00:00)

ARIANE 6 FM1 Upper Stage - Pass Details

Date: 16 October 2024
Orbit: 558 x 596 km, 62.0° (Epoch: 12 November)

Event Time Altitude Azimuth Distance (km) Brightness Sun altitude
Rises 02:37:20 0° 321° (NW) 2,832 7.0 -34.7°
Reaches altitude 10° 02:39:35 10° 322° (NW) 1,932 6.0 -35.1°
Enters shadow 02:40:21 15° 322° (NW) 1,629 5.6 -35.3°
